Location: Peebles
(55.6412°N, 3.1714°W)
Time: 17:17:57
(UTC+01:00)

USA 281 - Pass Details

Date: 28 January 2022
Orbit: 1070 x 1089 km, 106.0° (Epoch: 25 March)

Event Time Altitude Azimuth Distance (km) Brightness Sun altitude
Rises 06:52:40 0° 53° (NE) 3,896 6.7 -11.2°
Reaches altitude 10° 06:56:10 10° 34° (NE) 2,943 5.7 -10.7°
Maximum altitude 07:00:04 17° 358° (N) 2,471 4.9 -10.2°
Drops below altitude 10° 07:03:58 10° 321° (NW) 2,947 5.0 -9.7°
Enters shadow 07:04:51 - 315° (NW) 3,158 5.1 -9.6°
